STARLINK-30233, 57302

Orbit data source: Space-Track

STARLINK-30233, 57302 is a payload satellite owned by SpaceX/Seattle (US) in LEO that was launched on Mon, 10 Jul 2023 UTC via an FALCON 9 launch vehicle from the Air Force Eastern Test Range (AFETR). Payload-class satellites include a variety of spacecraft equipped with specific instruments for various scientific and technological missions. These include communications satellites like Starlink; space stations such as the ISS; scientific satellites like the Hubble; Earth observation satellites from companies like Planet Labs, Umbra, and HawkEye 360; GPS; miniature CubeSats for education and research; and military/defense satellites.

Loading next visibility...
Identifier
57302, 2023-096N
Orbit
LEO
Country
Flag of USUS
Related business
Manufacturer
SpaceX/Seattle
Mission
Operational Commercial Communications
Bus & Motor
STARLINK V2M, Unknown motor
Mass
730 kg wet, ~700 kg dry
Launch date (UTC)
2023-07-10 (3 years ago)
Launch vehicle
FALCON 9
Launch site
Air Force Eastern Test Range (AFETR)
Object type
Payload
Rocket body
Debris
Shape & HBR
Box + 2 Pan, 17.7 m
Radar Cross Section
33.884 m², Large (>1 m²)

Expand to show TLE details & history
Last TLE update: 14 hours ago

TLE from 14 hours ago
0 STARLINK-30233
1 57302U 23096N   26196.11090839  .00000269  00000-0  19301-4 0  9997
2 57302  43.0002 223.6462 0001356 277.8102  82.2596 15.27576692166202
Epoch: 2026-07-15T02:39Z
TLE epoch observation values (Epoch: 2026-07-15T02:39:42.484Z)
Latitude
-0.00001°
Longitude
-109.25224°
Altitude
482.709 km
Speed
7.626 km/s
True Right ascension
14h 54m 35s
True Declination
0° 00' 00"
Sunlit
Object was in daylight at epoch
Visualization orbit readout
Latitude
Unknown
Longitude
Unknown
Altitude
Unknown
Speed
Unknown
Apparent Right ascension
Unknown
Apparent Declination
Unknown
Sunlit
N/A
Visualization observer readout
Local Sidereal Time
05:00:35
Azimuth
Unknown
Elevation
Unknown
Doppler factor
Unknown
Orbital elements
Apogee altitude
485.935 km
Perigee altitude
484.073 km
Semi-major axis
6,863.141 km
Eccentricity
0.00014
Inclination
43.0002°
RAAN
223.6462°
Arg. of periapsis
277.8102°
True anomaly
82.275°
Mean anomaly
82.2596°
Eccentric anomaly
82.2673°
Mean motion
3.81732 °/min
Orbital period
94.31 mins
BSTAR
0.000019301
Loading maneuver chart data...
Computing Atmospheric mass density...

Documentation

Showing up to 5 results
|